TimeEST,TemperatureF,Dew PointF,Humidity,Sea Level PressureIn,VisibilityMPH,Wind Direction,Wind SpeedMPH,Gust SpeedMPH,PrecipitationIn,Events,Conditions,WindDirDegrees,DateUTC
12:25 AM,37.4,37.4,100,30.08,0.8,Variable,3.5,-,N/A,,Overcast,0,2013-01-30 05:25:00
12:53 AM,37.9,37.0,97,30.08,0.5,ENE,4.6,-,N/A,Fog,Fog,60,2013-01-30 05:53:00
1:53 AM,37.9,37.0,97,30.04,0.5,ENE,4.6,-,N/A,Fog,Fog,60,2013-01-30 06:53:00
2:45 AM,37.4,37.4,100,30.01,0.2,Calm,Calm,-,N/A,Fog,Fog,0,2013-01-30 07:45:00
2:53 AM,37.9,37.0,97,30.03,0.2,Calm,Calm,-,N/A,Fog,Fog,0,2013-01-30 07:53:00
3:53 AM,37.9,37.0,97,29.98,0.2,Calm,Calm,-,N/A,Fog,Fog,0,2013-01-30 08:53:00
4:53 AM,37.9,37.0,97,29.97,0.2,Calm,Calm,-,N/A,Fog,Fog,0,2013-01-30 09:53:00
5:53 AM,37.9,37.0,97,29.94,0.2,Calm,Calm,-,N/A,Fog,Fog,0,2013-01-30 10:53:00
6:53 AM,39.0,37.9,96,29.91,0.2,NE,3.5,-,N/A,Fog,Fog,40,2013-01-30 11:53:00
7:53 AM,37.9,37.9,100,29.91,0.2,Calm,Calm,-,N/A,Fog,Fog,0,2013-01-30 12:53:00
8:53 AM,39.9,39.0,97,29.89,0.2,Calm,Calm,-,N/A,Fog,Fog,0,2013-01-30 13:53:00
9:53 AM,42.1,41.0,96,29.86,0.2,Calm,Calm,-,N/A,Fog,Fog,0,2013-01-30 14:53:00
10:28 AM,44.6,42.8,93,29.81,0.8,Calm,Calm,-,N/A,,Overcast,0,2013-01-30 15:28:00
10:37 AM,44.6,44.6,100,29.81,1.0,Calm,Calm,-,N/A,,Overcast,0,2013-01-30 15:37:00
10:53 AM,44.1,44.1,100,29.82,1.2,Calm,Calm,-,N/A,,Overcast,0,2013-01-30 15:53:00
11:25 AM,44.6,44.6,100,29.79,1.2,Calm,Calm,-,N/A,,Overcast,0,2013-01-30 16:25:00
11:53 AM,45.0,44.1,97,29.77,1.2,Calm,Calm,-,N/A,,Overcast,0,2013-01-30 16:53:00
12:08 PM,46.4,44.6,93,29.73,1.5,Calm,Calm,-,N/A,,Overcast,0,2013-01-30 17:08:00
12:30 PM,46.4,44.6,93,29.72,1.8,Calm,Calm,-,N/A,,Overcast,0,2013-01-30 17:30:00
12:42 PM,46.4,44.6,93,29.72,2.0,Calm,Calm,-,N/A,,Overcast,0,2013-01-30 17:42:00
12:53 PM,46.9,45.0,93,29.73,2.0,Calm,Calm,-,N/A,,Overcast,0,2013-01-30 17:53:00
1:53 PM,48.0,46.0,93,29.67,2.0,Calm,Calm,-,N/A,,Overcast,0,2013-01-30 18:53:00
2:53 PM,48.9,46.0,90,29.64,2.5,Calm,Calm,-,N/A,,Overcast,0,2013-01-30 19:53:00
3:53 PM,48.9,46.9,93,29.63,2.0,Calm,Calm,-,N/A,,Overcast,0,2013-01-30 20:53:00
4:53 PM,55.9,51.1,84,29.59,5.0,Variable,6.9,-,N/A,,Haze,0,2013-01-30 21:53:00
5:53 PM,60.1,57.0,90,29.62,3.0,WNW,9.2,-,0.04,Rain,Rain,300,2013-01-30 22:53:00
6:08 PM,59.0,57.2,94,29.60,2.5,Calm,Calm,-,0.03,Rain,Light Rain,0,2013-01-30 23:08:00
6:16 PM,59.0,57.2,94,29.60,3.0,Calm,Calm,-,0.04,Rain,Light Rain,0,2013-01-30 23:16:00
6:53 PM,57.9,55.9,93,29.61,5.0,South,4.6,-,0.05,Rain,Light Rain,190,2013-01-30 23:53:00
7:53 PM,57.0,55.0,93,29.58,5.0,SE,8.1,-,0.02,Rain,Light Rain,140,2013-01-31 00:53:00
8:36 PM,57.2,55.4,94,29.52,3.0,Calm,Calm,-,0.03,Rain,Light Rain,0,2013-01-31 01:36:00
8:46 PM,55.4,55.4,100,29.52,2.5,Calm,Calm,-,0.03,Rain,Light Rain,0,2013-01-31 01:46:00
8:53 PM,55.9,55.0,97,29.53,1.5,Calm,Calm,-,0.04,Rain,Light Rain,0,2013-01-31 01:53:00
9:00 PM,55.4,55.4,100,29.51,0.8,NNE,3.5,-,0.00,Rain,Light Rain,20,2013-01-31 02:00:00
9:24 PM,53.6,53.6,100,29.49,0.5,Calm,Calm,-,0.00,Fog,Fog,0,2013-01-31 02:24:00
9:37 PM,53.6,53.6,100,29.48,2.0,East,3.5,-,0.00,,Overcast,100,2013-01-31 02:37:00
9:45 PM,53.6,53.6,100,29.46,4.0,ENE,4.6,-,0.00,,Overcast,70,2013-01-31 02:45:00
9:53 PM,53.1,53.1,100,29.47,2.0,Calm,Calm,-,0.00,,Overcast,0,2013-01-31 02:53:00
9:58 PM,51.8,51.8,100,29.44,0.8,Calm,Calm,-,N/A,,Overcast,0,2013-01-31 02:58:00
10:17 PM,53.6,53.6,100,29.44,2.5,Calm,Calm,-,0.00,Rain,Light Rain,0,2013-01-31 03:17:00
10:24 PM,55.4,53.6,94,29.42,7.0,Calm,Calm,-,0.00,Rain,Light Rain,0,2013-01-31 03:24:00
10:53 PM,59.0,55.0,87,29.42,10.0,South,9.2,18.4,0.03,,Overcast,190,2013-01-31 03:53:00
11:53 PM,60.1,57.0,90,29.36,5.0,SSW,10.4,23.0,0.01,Rain,Light Rain,210,2013-01-31 04:53:00